Torna al catalogo

HULIANWANG DIGUI-149

AttivoComunicazioniLEO
NORAD 67525·PAYLOAD·🇨🇳 China

Lanciato Jan 19, 2026 da Wenchang Space Launch Site

Loading…

Prossimi Passaggi (prossime 24 ore)

TLE

AggiornatoSource: Space-Track

Epoca: Sep 14, 2026, 08:55 UTC

1 67525U 26013D   26257.37175170 -.00000116  00000-0  17543-4 0  9993
2 67525  50.0096  35.8451 0001005  77.5608 282.5377 13.29329056 31910

Traccia HULIANWANG DIGUI-149 in tempo reale con AllMySat

Download on the App Store